Simultaneous Nadir Overpasses (SNOs) Predictions

Prediction of SNOs between NOAA-19 and METOP-C Satellite Orbit:

Table of predicted SNOs for the next 14.0 days since TLE Epoch: 6/12/2021
Index Date (NOAA-19) Time (NOAA-19) Lat,Lon (NOAA-19) SZA (NOAA-19 ) Date (METOP-C) Time (METOP-C) Lat,Lon (METOP-C) SZA (METOP-C ) Distance(km) Time Diff (sec)
1 06/17/2021 03:26:03 80.55, 156.72 58.32 06/17/2021 03:27:07 80.54, 156.90 58.35 3.24 64
2 06/17/2021 04:16:58 -80.53, -35.61 121.67 06/17/2021 04:17:49 -80.54, -35.76 121.66 3.02 51
3 06/17/2021 05:08:03 80.54, 131.34 58.32 06/17/2021 05:08:29 80.53, 131.41 58.32 1.97 26
4 06/17/2021 05:58:59 -80.54, -61.34 121.68 06/17/2021 05:59:11 -80.53, -61.24 121.68 1.99 12
5 06/17/2021 06:50:03 80.54, 105.95 58.32 06/17/2021 06:49:51 80.52, 105.92 58.30 2.19 12
6 06/17/2021 07:40:59 -80.53, -86.72 121.68 06/17/2021 07:40:33 -80.52, -86.73 121.70 1.62 26
7 06/17/2021 08:32:02 80.52, 80.92 58.34 06/17/2021 08:31:12 80.53, 80.77 58.32 3.13 50



Historial Predications of SNOs between NOAA-19 and METOP-C
